EW0259 Weather Reports


time (UTC)temp
C
wind
direction
speed
KPH
gust
KPH
rain 1hr
cm
rain 24hr
cm
rain mn
cm
humidity
%
barometer
mb
20260903161752 12 88 1.6 3.2 0.00 0.94 0.18 92 1010.5
20260903161227 12 36 0.0 0.0 0.00 0.94 0.18 91 1010.6
20260903160734 12 36 0.0 3.2 0.00 0.94 0.18 92 1010.6
20260903160301 12 343 0.0 3.2 0.00 0.94 0.18 91 1010.5
20260903155736 12 36 0.0 3.2 0.00 0.94 0.18 93 1010.5
20260903155224 12 74 1.6 3.2 0.00 0.94 0.18 93 1010.5
20260903154730 12 83 0.0 3.2 0.00 0.94 0.18 93 1010.5
20260903154257 12 66 1.6 3.2 0.00 0.94 0.18 94 1010.4
20260903154226 12 66 1.6 3.2 0.00 0.94 0.18 94 1010.4
20260903153732 12 114 0.0 3.2 0.00 0.94 0.18 95 1010.4
20260903153300 11 119 0.0 3.2 0.00 0.94 0.18 94 1010.4
20260903153229 11 119 0.0 3.2 0.00 0.94 0.18 94 1010.4
20260903152735 11 111 0.0 3.2 0.00 0.94 0.18 94 1010.3
20260903152223 11 130 0.0 3.2 0.00 0.94 0.18 94 1010.4
20260903151810 11 152 0.0 4.8 0.03 0.94 0.18 94 1010.4
20260903151305 11 81 0.0 6.4 0.03 0.94 0.18 95 1010.3
20260903150720 11 90 1.6 3.2 0.03 0.94 0.18 95 1010.3
20260903150307 11 86 0.0 3.2 0.03 0.94 0.18 95 1010.4
20260903150235 11 86 0.0 3.2 0.03 0.94 0.18 95 1010.4
20260903145726 11 88 0.0 6.4 0.03 0.94 0.18 95 1010.3
20260903145254 11 86 3.2 4.8 0.05 0.94 0.18 95 1010.4
20260903145223 11 86 3.2 4.8 0.05 0.94 0.18 95 1010.4
20260903144728 11 80 3.2 4.8 0.05 0.94 0.18 95 1010.2
20260903144235 11 74 1.6 3.2 0.05 0.94 0.18 95 1010.3
20260903143722 11 108 0.0 3.2 0.05 0.94 0.18 95 1010.3
20260903143229 11 130 0.0 3.2 0.05 0.94 0.18 95 1010.2
20260903142736 11 94 0.0 4.8 0.08 0.94 0.18 95 1010.2
20260903142225 11 76 3.2 4.8 0.08 0.94 0.18 95 1010.2
20260903141730 11 93 0.0 3.2 0.05 0.91 0.15 95 1010.2
20260903141237 11 53 0.0 0.0 0.05 0.91 0.15 95 1010.3
20260903140805 11 53 0.0 0.0 0.08 0.91 0.15 95 1010.2
20260903140220 11 53 0.0 0.0 0.08 0.91 0.15 95 1010.2
20260903135731 11 53 0.0 0.0 0.08 0.91 0.15 95 1010.1
20260903135259 11 46 0.0 0.0 0.05 0.89 0.13 95 1010.2
20260903135228 11 46 0.0 0.0 0.05 0.89 0.13 95 1010.2
20260903134733 11 46 0.0 3.2 0.05 0.89 0.13 95 1010.1
20260903134220 11 46 0.0 3.2 0.08 0.89 0.13 95 1010.0
20260903133808 11 46 0.0 3.2 0.08 0.89 0.13 95 1010.0
20260903133223 11 46 0.0 0.0 0.08 0.89 0.13 95 1009.9
20260903132731 11 46 0.0 0.0 0.05 0.86 0.10 95 1009.9
20260903132238 11 46 0.0 1.6 0.05 0.86 0.10 95 1009.9
20260903131725 11 46 0.0 3.2 0.08 0.86 0.10 95 1009.9
20260903131231 11 46 0.0 3.2 0.08 0.86 0.10 95 1009.9
20260903130738 11 254 0.0 0.0 0.05 0.84 0.08 95 1009.8
20260903130306 11 255 0.0 0.0 0.05 0.84 0.08 95 1009.9
20260903125721 11 254 0.0 0.0 0.05 0.84 0.08 95 1009.9
20260903125310 11 255 0.0 0.0 0.05 0.84 0.08 95 1009.9
20260903124727 11 254 0.0 0.0 0.05 0.84 0.08 95 1009.8
20260903124234 11 254 0.0 1.6 0.03 0.81 0.05 95 1009.9
20260903123722 11 255 0.0 3.2 0.03 0.81 0.05 95 1009.9
20260903123228 11 254 0.0 3.2 0.03 0.81 0.05 95 1009.8
20260903122735 11 255 0.0 3.2 0.03 0.81 0.05 95 1009.8
20260903122223 11 255 1.6 3.2 0.03 0.81 0.05 95 1009.8
20260903121809 11 215 0.0 0.0 0.00 0.79 0.03 95 1009.7
20260903121224 11 94 0.0 0.0 0.00 0.79 0.03 95 1009.7
20260903120731 11 93 0.0 0.0 0.00 0.79 0.03 95 1009.5
20260903120258 11 93 0.0 0.0 0.00 0.79 0.03 95 1009.4
20260903120226 11 93 0.0 0.0 0.00 0.79 0.03 95 1009.4
20260903115753 11 94 0.0 0.0 0.00 0.79 0.03 95 1009.3
20260903115229 10 93 0.0 0.0 0.00 0.79 0.03 95 1009.3
20260903114735 11 93 0.0 3.2 0.03 0.79 0.03 95 1009.1
20260903114226 10 93 0.0 3.2 0.03 0.79 0.03 95 1009.1
20260903113733 10 93 0.0 0.0 0.03 0.79 0.03 95 1009.2
20260903113220 10 94 0.0 0.0 0.03 0.79 0.03 95 1009.2
20260903112727 10 94 0.0 0.0 0.03 0.79 0.03 95 1009.2
20260903112236 10 93 0.0 0.0 0.03 0.79 0.03 95 1009.2
20260903111721 10 92 0.0 0.0 0.03 0.79 0.03 95 1009.2
20260903111228 10 92 0.0 0.0 0.03 0.79 0.03 95 1009.3
20260903110735 10 94 0.0 0.0 0.03 0.79 0.03 95 1009.3
20260903110222 10 92 0.0 0.0 0.03 0.79 0.03 95 1009.3
20260903105729 10 93 0.0 0.0 0.03 0.79 0.03 95 1009.2
20260903105258 10 94 0.0 0.0 0.03 0.79 0.03 95 1009.2
20260903104736 10 93 0.0 0.0 0.00 0.76 0.00 95 1009.1
20260903104303 10 93 0.0 0.0 0.00 0.76 0.00 95 1009.1
20260903103738 11 93 0.0 0.0 0.00 0.76 0.00 95 1009.3
20260903103305 10 93 0.0 0.0 0.00 0.76 0.00 95 1009.2
20260903102739 10 93 0.0 0.0 0.00 0.76 0.00 95 1009.2
20260903102227 10 93 0.0 0.0 0.00 0.76 0.00 95 1009.2
20260903101733 10 94 0.0 0.0 0.00 0.76 0.00 95 1009.2
20260903101220 10 93 0.0 0.0 0.00 0.76 0.00 95 1009.2
20260903100808 11 93 0.0 1.6 0.00 0.76 0.00 95 1009.2
20260903100223 11 93 0.0 3.2 0.00 0.76 0.00 95 1009.2
20260903095730 11 93 1.6 1.6 0.00 0.76 0.00 95 1009.1
20260903095238 11 93 0.0 0.0 0.00 0.76 0.00 95 1009.2
20260903094724 11 93 0.0 0.0 0.00 0.76 0.00 95 1009.2
20260903094234 11 93 0.0 3.2 0.00 0.76 0.00 95 1009.1
20260903093721 11 93 0.0 3.2 0.00 0.76 0.00 95 1009.1
20260903093228 11 93 0.0 3.2 0.00 0.76 0.00 95 1009.1
20260903092735 11 93 0.0 1.6 0.00 0.76 0.00 95 1009.1
20260903092223 11 94 0.0 0.0 0.00 0.76 0.00 95 1009.2
20260903091729 11 93 0.0 0.0 0.00 0.79 0.00 95 1009.2
20260903091236 10 93 0.0 0.0 0.00 0.79 0.00 95 1009.2
20260903090803 10 93 0.0 0.0 0.00 0.79 0.00 95 1009.1
20260903090238 10 93 0.0 0.0 0.03 0.79 0.00 95 1009.0
20260903085725 10 93 0.0 0.0 0.03 0.79 0.00 95 1009.1
20260903085253 10 93 0.0 0.0 0.03 0.79 0.00 95 1009.1
20260903084727 10 92 0.0 0.0 0.03 0.79 0.00 95 1009.1
20260903084238 10 93 0.0 0.0 0.03 0.79 0.00 95 1009.0
20260903083725 10 93 0.0 0.0 0.03 0.79 0.00 95 1009.1
20260903083232 10 92 0.0 0.0 0.03 0.79 0.00 95 1009.1
20260903082738 11 93 0.0 0.0 0.03 0.79 0.00 95 1009.1
20260903082306 11 93 0.0 0.0 0.03 0.79 0.00 95 1009.0
20260903081720 11 92 0.0 0.0 0.03 0.79 0.79 95 1009.1
20260903081227 10 93 0.0 0.0 0.03 0.79 0.79 95 1009.1
20260903080734 11 93 0.0 0.0 0.00 0.76 0.76 95 1009.1
20260903080221 10 93 0.0 0.0 0.00 0.76 0.76 95 1009.1
20260903075728 10 93 0.0 0.0 0.00 0.76 0.76 95 1009.1
20260903075256 10 93 0.0 0.0 0.00 0.76 0.76 95 1009.1
20260903074730 10 93 0.0 0.0 0.00 0.76 0.76 95 1009.1
20260903074220 10 93 0.0 0.0 0.00 0.76 0.76 95 1009.1
20260903073727 10 93 0.0 0.0 0.00 0.76 0.76 94 1009.1
20260903073229 10 93 0.0 0.0 0.00 0.76 0.76 94 1009.0
20260903072736 11 93 0.0 0.0 0.00 0.76 0.76 94 1009.0
20260903072224 11 93 0.0 0.0 0.00 0.76 0.76 94 1008.9
20260903071730 11 93 0.0 0.0 0.00 0.76 0.76 94 1008.8
20260903071257 11 94 0.0 0.0 0.00 0.76 0.76 94 1008.8
20260903070733 11 93 0.0 0.0 0.00 0.76 0.76 94 1008.7
20260903070301 11 93 0.0 0.0 0.00 0.76 0.76 95 1008.8
20260903065736 11 92 0.0 0.0 0.00 0.76 0.76 95 1008.7
20260903065224 11 93 0.0 0.0 0.00 0.76 0.76 95 1008.8
20260903064729 11 94 0.0 0.0 0.00 0.76 0.76 95 1008.8
20260903064257 11 93 0.0 0.0 0.00 0.76 0.76 95 1008.8
20260903063736 11 93 0.0 0.0 0.00 0.76 0.76 95 1008.7
20260903063303 11 93 0.0 0.0 0.00 0.76 0.76 95 1008.7
20260903062738 11 94 0.0 0.0 0.00 0.76 0.76 95 1008.8
20260903062227 11 93 0.0 0.0 0.00 0.76 0.76 95 1008.7
20260903061733 11 92 0.0 0.0 0.00 0.76 0.76 95 1008.8
20260903061301 11 93 0.0 0.0 0.00 0.76 0.76 94 1008.8
20260903060736 11 93 0.0 0.0 0.00 0.76 0.76 94 1008.8
20260903060223 11 93 0.0 0.0 0.00 0.76 0.76 94 1008.7
20260903055811 11 93 0.0 0.0 0.00 0.76 0.76 94 1008.8
20260903055307 11 93 0.0 0.0 0.00 0.76 0.76 94 1008.7
20260903055235 11 93 0.0 0.0 0.00 0.76 0.76 94 1008.7
20260903054802 11 93 0.0 0.0 0.00 0.76 0.76 94 1008.8
20260903054730 11 93 0.0 0.0 0.00 0.76 0.76 94 1008.8
20260903054257 11 93 0.0 0.0 0.00 0.76 0.76 94 1008.8
20260903054225 11 93 0.0 0.0 0.00 0.76 0.76 94 1008.8
20260903053732 11 94 0.0 0.0 0.00 0.76 0.76 94 1008.8
20260903053300 11 93 0.0 0.0 0.00 0.76 0.76 94 1008.8
20260903052735 11 93 0.0 0.0 0.00 0.76 0.76 94 1008.8
20260903052306 11 93 0.0 0.0 0.00 0.76 0.76 94 1008.7
20260903051759 11 93 0.0 0.0 0.00 0.76 0.76 94 1008.6
20260903051234 11 93 0.0 0.0 0.00 0.76 0.76 94 1008.6
20260903050721 11 93 0.0 0.0 0.00 0.76 0.76 94 1008.7
20260903050228 11 93 0.0 0.0 0.00 0.76 0.76 94 1008.6
20260903045739 12 93 0.0 0.0 0.00 0.76 0.76 94 1008.6
20260903045228 12 93 0.0 0.0 0.00 0.76 0.76 94 1008.5
20260903044753 12 93 0.0 0.0 0.00 0.76 0.76 94 1008.6
20260903044229 12 93 0.0 0.0 0.00 0.76 0.76 94 1008.7
20260903043735 12 94 0.0 0.0 0.00 0.76 0.76 94 1008.6
20260903043222 12 94 0.0 0.0 0.00 0.76 0.76 94 1008.5
20260903042729 12 93 0.0 0.0 0.00 0.76 0.76 93 1008.7
20260903042237 12 93 0.0 0.0 0.00 0.76 0.76 93 1008.6
20260903041723 12 93 0.0 0.0 0.00 0.76 0.76 93 1008.5
20260903041230 12 93 0.0 0.0 0.00 0.76 0.76 93 1008.4
20260903040721 12 93 0.0 0.0 0.00 0.76 0.76 93 1008.5
20260903040228 12 93 0.0 0.0 0.00 0.76 0.76 94 1008.5
20260903035735 12 93 0.0 0.0 0.00 0.76 0.76 93 1008.5
20260903035223 12 93 0.0 0.0 0.00 0.76 0.76 94 1008.3
20260903034729 13 93 0.0 1.6 0.00 0.76 0.76 94 1008.4
20260903034258 13 93 0.0 1.6 0.00 0.76 0.76 94 1008.2
20260903034226 13 93 0.0 1.6 0.00 0.76 0.76 94 1008.2
20260903033732 13 93 0.0 3.2 0.00 0.76 0.76 94 1008.2
20260903033239 13 93 0.0 3.2 0.00 0.76 0.76 93 1008.0
20260903032806 13 93 0.0 0.0 0.00 0.76 0.76 93 1007.9
20260903032734 13 93 0.0 0.0 0.00 0.76 0.76 93 1007.9
20260903032222 13 93 0.0 0.0 0.00 0.76 0.76 93 1007.8
20260903031728 13 93 0.0 0.0 0.00 0.76 0.76 93 1007.8
20260903031235 13 93 0.0 4.8 0.00 0.76 0.76 93 1007.7
20260903030726 13 93 0.0 4.8 0.00 0.76 0.76 94 1007.7
20260903030233 13 66 0.0 1.6 0.00 0.76 0.76 93 1007.7
20260903025800 13 65 1.6 3.2 0.00 0.76 0.76 93 1007.8
20260903025236 13 65 0.0 3.2 0.00 0.76 0.76 93 1007.7
20260903024722 13 65 0.0 3.2 0.00 0.76 0.76 93 1007.7
20260903024229 13 100 0.0 0.0 0.00 0.76 0.76 92 1007.5
20260903023736 13 99 0.0 1.6 0.00 0.76 0.76 92 1007.5
20260903023223 13 99 0.0 3.2 0.00 0.76 0.76 92 1007.5
20260903022811 13 99 0.0 3.2 0.00 0.76 0.76 92 1007.4
20260903022227 13 99 0.0 3.2 0.00 0.76 0.76 91 1007.5
20260903021733 13 100 0.0 3.2 0.00 0.76 0.76 91 1007.4
20260903021220 14 99 0.0 3.2 0.00 0.76 0.76 90 1007.4
20260903020731 14 89 0.0 9.7 0.00 0.76 0.76 90 1007.3
20260903020237 14 196 1.6 9.7 0.03 0.76 0.76 90 1007.4
20260903015724 15 107 3.2 4.8 0.03 0.76 0.76 92 1007.4
20260903015232 15 88 0.0 3.2 0.05 0.76 0.76 92 1007.3
20260903014758 15 76 0.0 3.2 0.08 0.76 0.76 92 1007.3
20260903014726 15 76 0.0 3.2 0.08 0.76 0.76 92 1007.3
20260903014233 15 30 1.6 3.2 0.10 0.76 0.76 91 1007.2
20260903013720 14 76 1.6 4.8 0.13 0.76 0.76 92 1007.2
20260903013307 14 299 0.0 4.8 0.15 0.76 0.76 92 1007.2
20260903013235 14 299 0.0 4.8 0.15 0.76 0.76 92 1007.2
20260903012803 14 161 0.0 9.7 0.15 0.76 0.76 91 1007.0
20260903012239 14 297 3.2 9.7 0.15 0.76 0.76 91 1006.9
20260903011725 14 88 0.0 9.7 0.15 0.76 0.76 91 1006.7
20260903011232 14 113 3.2 9.7 0.15 0.76 0.76 91 1006.6
20260903010739 14 114 1.6 8.0 0.15 0.76 0.76 91 1006.5
20260903010230 14 124 0.0 3.2 0.13 0.74 0.74 92 1006.5
20260903005737 14 149 0.0 6.4 0.13 0.74 0.74 91 1006.4
20260903005225 14 61 1.6 11.3 0.10 0.71 0.71 91 1006.5
20260903004731 15 163 3.2 11.3 0.08 0.69 0.69 91 1006.5
20260903004238 15 223 4.8 11.3 0.05 0.66 0.66 92 1006.4
20260903003725 15 210 1.6 11.3 0.03 0.64 0.64 93 1006.4
20260903003232 15 10 1.6 11.3 0.00 0.61 0.61 93 1006.3
20260903002759 15 20 1.6 6.4 0.00 0.61 0.61 93 1006.2
20260903002727 15 20 1.6 6.4 0.00 0.61 0.61 93 1006.2
20260903002235 15 259 3.2 6.4 0.00 0.61 0.61 93 1005.8
20260903001802 15 323 1.6 3.2 0.03 0.61 0.61 93 1005.5
20260903001729 15 323 1.6 3.2 0.03 0.61 0.61 93 1005.5
20260903001257 15 96 0.0 3.2 0.03 0.61 0.61 92 1005.6
20260903000732 15 105 0.0 3.2 0.05 0.61 0.61 92 1005.4
20260903000241 15 121 0.0 6.4 0.08 0.61 0.61 93 1005.5
20260902235807 15 99 1.6 4.8 0.10 0.61 0.61 92 1005.5
20260902235228 15 82 3.2 4.8 0.13 0.61 0.61 92 1005.5
20260902234733 15 69 1.6 4.8 0.13 0.61 0.61 92 1005.5
20260902234220 15 79 1.6 6.4 0.15 0.61 0.61 92 1005.5
20260902233807 15 86 0.0 4.8 0.18 0.61 0.61 92 1005.6
20260902233735 15 86 0.0 4.8 0.18 0.61 0.61 92 1005.6
20260902233222 15 71 1.6 6.4 0.20 0.61 0.61 92 1005.6
20260902232729 15 57 1.6 6.4 0.20 0.61 0.61 92 1005.5
20260902232237 15 69 1.6 6.4 0.23 0.61 0.61 92 1005.6
20260902231723 15 84 3.2 6.4 0.23 0.58 0.58 92 1005.7
20260902231231 15 64 3.2 8.0 0.23 0.58 0.58 91 1005.8
20260902230738 15 73 0.0 8.0 0.23 0.56 0.56 91 1005.9
20260902230305 15 69 1.6 4.8 0.23 0.53 0.53 91 1006.1
20260902230233 15 69 1.6 4.8 0.23 0.53 0.53 91 1006.1
20260902225735 15 87 1.6 3.2 0.23 0.51 0.51 92 1006.1
20260902225306 15 78 1.6 3.2 0.20 0.48 0.48 91 1006.1
20260902224721 15 236 0.0 3.2 0.23 0.48 0.48 91 1006.2
20260902224305 15 103 0.0 3.2 0.23 0.46 0.46 90 1006.1
20260902223723 15 66 0.0 4.8 0.20 0.43 0.43 90 1005.9
20260902223307 15 68 1.6 4.8 0.18 0.41 0.41 90 1005.7
20260902222741 15 101 0.0 3.2 0.20 0.41 0.41 90 1005.7
20260902222306 15 84 0.0 3.2 0.18 0.38 0.38 90 1005.8
20260902221739 15 87 0.0 3.2 0.18 0.36 0.36 89 1005.8
20260902221223 15 62 1.6 3.2 0.18 0.36 0.36 89 1005.9
20260902220808 16 327 0.0 0.0 0.18 0.33 0.33 89 1006.0
20260902220736 16 327 0.0 0.0 0.18 0.33 0.33 89 1006.0
20260902220300 16 327 0.0 0.0 0.15 0.30 0.30 87 1006.1
20260902220228 16 327 0.0 0.0 0.15 0.30 0.30 87 1006.1
20260902215732 16 327 0.0 0.0 0.13 0.28 0.28 87 1006.0
20260902215257 16 331 0.0 0.0 0.13 0.25 0.25 87 1006.0
20260902215225 16 331 0.0 0.0 0.13 0.25 0.25 87 1006.0
20260902214729 16 331 0.0 0.0 0.13 0.25 0.25 88 1006.0
20260902214222 16 314 0.0 0.0 0.10 0.23 0.23 85 1006.1
20260902213729 16 9 0.0 3.2 0.10 0.23 0.23 86 1006.2
20260902213256 16 18 0.0 3.2 0.08 0.20 0.20 84 1006.1
20260902213224 16 18 0.0 3.2 0.08 0.20 0.20 84 1006.1
20260902212751 16 18 0.0 3.2 0.08 0.20 0.20 84 1006.1
20260902212228 16 355 0.0 3.2 0.08 0.20 0.20 84 1006.2
20260902211754 16 355 1.6 4.8 0.05 0.18 0.18 82 1006.0
20260902211230 16 236 1.6 3.2 0.05 0.18 0.18 82 1006.1
20260902210753 17 298 0.0 3.2 0.03 0.15 0.15 82 1006.1
20260902210228 17 142 0.0 3.2 0.03 0.15 0.15 82 1006.0
20260902205735 17 339 0.0 3.2 0.03 0.15 0.15 81 1006.1
20260902205227 17 309 1.6 6.4 0.00 0.13 0.13 79 1006.1
20260902204728 17 338 1.6 6.4 0.00 0.13 0.13 78 1006.2
20260902204235 18 144 1.6 4.8 0.03 0.13 0.13 83 1006.2
20260902203722 17 19 0.0 4.8 0.08 0.13 0.13 82 1006.2
20260902203309 17 9 0.0 4.8 0.10 0.13 0.13 79 1006.1
20260902202724 17 212 0.0 3.2 0.10 0.13 0.13 80 1006.0
20260902202232 17 116 0.0 3.2 0.10 0.13 0.13 79 1006.1
20260902201305 17 84 0.0 3.2 0.10 0.13 0.13 82 1006.0
20260902200720 17 84 1.6 3.2 0.10 0.13 0.13 81 1006.2
20260902200227 17 73 1.6 3.2 0.10 0.13 0.13 84 1006.2
20260902195734 17 68 0.0 3.2 0.10 0.13 0.13 84 1006.3
20260902195226 17 62 1.6 3.2 0.10 0.13 0.13 84 1006.3
20260902194732 17 355 1.6 4.8 0.10 0.13 0.13 84 1006.3
20260902194239 17 292 1.6 9.7 0.08 0.10 0.10 79 1006.4
20260902193806 17 339 1.6 22.5 0.03 0.05 0.05 73 1006.6
20260902193220 19 229 8.0 22.5 0.00 0.03 0.03 63 1006.4
20260902192727 20 241 1.6 4.8 0.00 0.03 0.03 57 1006.5
20260902192255 20 165 0.0 6.4 0.00 0.03 0.03 56 1006.3
20260902191729 20 161 3.2 8.0 0.00 0.03 0.03 57 1006.1
20260902191236 20 284 1.6 8.0 0.00 0.03 0.03 59 1006.3
20260902190804 20 323 1.6 9.7 0.00 0.03 0.03 58 1006.2
20260902190732 20 323 1.6 9.7 0.00 0.03 0.03 58 1006.2
20260902190259 20 284 3.2 9.7 0.00 0.03 0.03 59 1006.3
20260902190227 20 284 3.2 9.7 0.00 0.03 0.03 59 1006.3
20260902185734 20 107 3.2 4.8 0.00 0.03 0.03 61 1006.3
20260902185222 19 128 1.6 11.3 0.00 0.03 0.03 64 1006.3
20260902184728 19 74 3.2 11.3 0.00 0.03 0.03 61 1006.3
20260902184235 19 103 3.2 9.7 0.00 0.03 0.03 61 1006.3
20260902183726 18 26 3.2 9.7 0.00 0.03 0.03 65 1006.3
20260902183233 18 134 4.8 9.7 0.00 0.03 0.03 66 1006.5
20260902182720 18 121 3.2 6.4 0.00 0.03 0.03 69 1006.5
20260902182309 18 84 1.6 3.2 0.00 0.03 0.03 69 1006.6
20260902181723 18 81 1.6 3.2 0.00 0.03 0.03 70 1006.7
20260902181229 17 78 1.6 4.8 0.00 0.03 0.03 74 1006.7
20260902180736 17 67 1.6 4.8 0.00 0.03 0.03 76 1006.8
20260902180303 17 90 1.6 3.2 0.00 0.03 0.03 75 1006.8
20260902175759 17 90 0.0 3.2 0.00 0.03 0.03 73 1006.8
20260902175727 17 90 0.0 3.2 0.00 0.03 0.03 73 1006.8
20260902175256 17 90 0.0 4.8 0.00 0.03 0.03 73 1006.8
20260902174730 17 48 1.6 3.2 0.00 0.03 0.03 70 1006.9
20260902174237 17 37 0.0 3.2 0.00 0.03 0.03 74 1006.9
20260902173723 17 17 0.0 4.8 0.00 0.03 0.03 70 1007.0
20260902173230 17 101 1.6 4.8 0.00 0.03 0.03 70 1007.0
20260902172721 17 53 0.0 3.2 0.00 0.03 0.03 75 1007.1
20260902172230 17 52 0.0 6.4 0.00 0.03 0.03 75 1007.2
20260902171735 17 83 3.2 6.4 0.00 0.03 0.03 73 1007.1
20260902171222 17 104 0.0 3.2 0.00 0.03 0.03 75 1007.3
20260902170730 17 82 1.6 4.8 0.00 0.03 0.03 75 1007.3
20260902170236 17 100 0.0 4.8 0.00 0.03 0.03 75 1007.4
20260902165804 17 115 1.6 4.8 0.00 0.03 0.03 73 1007.5
20260902165732 17 115 1.6 4.8 0.00 0.03 0.03 73 1007.5
20260902165300 17 77 0.0 3.2 0.00 0.03 0.03 74 1007.5
20260902164733 17 148 0.0 3.2 0.00 0.03 0.03 72 1007.7
20260902164301 17 175 0.0 6.4 0.00 0.03 0.03 73 1007.7
20260902163756 17 223 0.0 6.4 0.00 0.03 0.03 74 1007.7
20260902163724 17 223 0.0 6.4 0.00 0.03 0.03 74 1007.7
20260902162738 17 156 0.0 3.2 0.00 0.03 0.03 73 1007.7
20260902162307 17 271 0.0 3.2 0.00 0.03 0.03 73 1007.7
20260902162235 17 271 0.0 3.2 0.00 0.03 0.03 73 1007.7